Miscellaneous Local Product
Issued by NWS North Platte, NE

Home | Current Version | Previous Version | Text Only | Print | Product List | Glossary On
Versions: 1 2 3 4 5 6 7 8 9 10 11 12 13 14 15 16 17 18 19 20 21 22 23 24 25 26 27 28 29 30 31 32 33 34 35 36 37 38 39 40 41 42 43 44 45 46 47 48 49 50
000
AXUS43 KLBF 260910
MISLBF


WESTERN AND NORTH CENTRAL NEBRASKA HOURLY WEATHER ROUNDUP
NATIONAL WEATHER SERVICE NORTH PLATTE NE
400 AM CDT MON JUN 26 2017

NOTE: "FAIR" INDICATES FEW OR NO CLOUDS BELOW 12,000 FEET WITH NO
SIGNIFICANT WEATHER AND/OR OBSTRUCTIONS TO VISIBILITY.

NOTE: STATIONS NOT REPORTING VARIABLES SUCH AS SKY/WEATHER OR
PRESSURE ARE PROVIDED BY RAWS AND APRS NETWORKS AND ARE NOT UNDER
NATIONAL WEATHER SERVICE QUALITY CONTROL.

...OBSERVATIONS IN AND NEAR THE EASTERN PANHANDLE OF NEBRASKA...

CITY           SKY/WX    TMP DP  RH WIND       PRES   REMARKS
PINE RIDGE     CLOUDY    48  41  76 E6        30.24S
GORDON         PTSUNNY   51  40  68 E5        30.23F
CHADRON        CLEAR     49  39  68 E3        30.24R
ALLIANCE       CLEAR     50  48  93 SE5       30.23S
SIDNEY         CLEAR     52  51  97 W5        30.25F
CRESCENT LAKE    N/A     54  52  94 NE3         N/A
$$

...OBSERVATIONS IN NORTHERN NEBRASKA AND FAR SOUTHERN SOUTH DAKOTA...

CITY           SKY/WX    TMP DP  RH WIND       PRES   REMARKS
WINNER         FAIR      52  45  77 E3        30.21S
VALENTINE      CLEAR     56  40  55 NE13      30.21R
THEDFORD       MOCLDY    58  54  86 SW6       30.21F
AINSWORTH      CLOUDY    58  54  85 NW6       30.19S
O`NEILL        CLEAR     57  51  79 N7        30.19R
ORD            CLEAR     57  50  77 SW7       30.18F
BROKEN BOW     MOCLDY    57  52  83 W7        30.21S
VALENTINE NWR    N/A     57  51  82 NW7         N/A
HALSEY           N/A     58  52  81 SW6         N/A
BUTTE            N/A     55  47  76 NE6         N/A
CHAMBERS         N/A     59  50  72 CALM        N/A
EWING            N/A     59  51  76 CALM        N/A
$$

...OBSERVATIONS IN SOUTHWEST NEBRASKA AND FAR NORTHEAST COLORADO...

CITY           SKY/WX    TMP DP  RH WIND       PRES   REMARKS
WRAY           FAIR     N/A N/A N/A SW5       30.25S
IMPERIAL       CLEAR     57  55  93 S6        30.23F
OGALLALA       CLEAR     54  53  94 W5        30.22S
NORTH PLATTE   CLEAR     53  51  93 CALM      30.23S
MCCOOK         CLOUDY    60  58  92 SW13      30.24S
LEXINGTON      PTCLDY    57  54  91 SW9       30.24S
STAPLETON        N/A     54  51  90 CALM        N/A
GOTHENBURG       N/A     58  53  83 SW3         N/A
CALLAWAY         N/A     56  53  91 S5          N/A
$$

...OBSERVATIONS IN CENTRAL LINCOLN COUNTY AREA...

CITY           SKY/WX    TMP DP  RH WIND       PRES   REMARKS
N.P. AIRPORT   CLEAR     53  51  93 CALM      30.23S
N.P. DOWNTOWN    N/A     56  54  93 CALM        N/A
N.P. SOUTHEAST   N/A     55  53  92 CALM        N/A
N.P. HILLCREST   N/A     55  53  94 CALM        N/A
$$

...SOME OBSERVATIONS FROM AROUND THE REGION...

CITY           SKY/WX    TMP DP  RH WIND       PRES   REMARKS
DENVER         CLEAR     57  53  86 S12       30.29F
LIMON          CLOUDY    56  55  97 SE3       30.34F
ASPEN          CLOUDY    49  32  52 S6        30.40S
LARAMIE        CLEAR     46  43  89 S7        30.37F
CASPER         CLEAR     43  37  79 NW5       30.30F
CHEYENNE       CLEAR     54  52  93 W8        30.32F
SCOTTSBLUFF    CLEAR     56  51  84 N7        30.23S
GRAND ISLAND   CLOUDY    61  54  77 SW12      30.22S
OMAHA          LGT RAIN  60  51  72 S3        30.18R
SIOUX FALLS    PTCLDY    53  52  96 N5        30.18F
PIERRE         CLEAR     47  43  86 NE5       30.21S
RAPID CITY     CLEAR     52  37  56 W3        30.26F
BISMARCK       CLEAR     44  42  93 E3        30.25F
KANSAS CITY    CLEAR     51  50  96 SW3       30.22F
HILL CITY      CLOUDY    59  56  89 W7        30.25F
WICHITA        CLOUDY    63  54  72 E7        30.22F
DODGE CITY     CLOUDY    60  58  92 S5        30.25F
OKLAHOMA CITY  MOCLDY    67  56  67 SE6       30.18F
DALLAS         CLOUDY    76  67  73 SE6       30.13F
AMARILLO       CLOUDY    60  56  86 N3        30.26R
$$




USA.gov is the U.S. government's official web portal to all federal, state and local government web resources and services.